[[{"header":{"parameterUnit":"m.s-1","parameterCategory":1,"la1":30.2991,"la2":30.254,"lo1":-89.0895,"lo2":-89.0444,"dx":0.0017,"dy":0.0017,"nx":28,"ny":28,"refTime":"2022-12-09T15:00:00:Z","depth":0,"parameterNumber":2,"parameterNumberName":"U-component_of_WINDS"},"data":[0,0,0,0,0,0,0,0,0,0,0,0,0,0,0,0,0,0,0,0,0,0,0,0,0,0,0,0,0,0,0,0,0,0,0,0,0,0,0,0,0,0,0,0,0,0,0,0,0,0,0,0,0,0,0,0,0,0,0.9035,0.9036,0,0.9062,0.9062,0.9062,0.9028,0.9026,0.9025,0.9024,0.9048,0.9049,0.9051,0,0,0,0,0,0,0,0,0,0,0,0,0,0.8954,0.8955,0.9035,0.9036,0.9036,0.9062,0.9062,0.9062,0.9028,0.9026,0.9025,0.9024,0.9047,0.9049,0.9051,0,0,0,0,0,0,0,0,0,0,0,0,0,0.8985,0.8956,0.9035,0.9022,0.9021,0.9062,0.9062,0.9062,0.9028,0.9026,0.9025,0.9023,0.9046,0.9049,0.9052,0.9105,0,0,0.906,0.9061,0,0,0,0,0,0,0,0,0.8984,0.8988,0.9024,0.9023,0.9022,0.904,0.9042,0.9077,0.9029,0.9025,0.9024,0.9022,0.9046,0.9049,0.9058,0.9106,0.9107,0.906,0.9062,0.9063,0.9064,0,0,0,0,0,0,0,0.8981,0.8987,0.9046,0.9024,0.9023,0.9014,0.9017,0.9048,0.9046,0.9026,0.9023,0.9027,0.9045,0.9055,0.9058,0.9108,0.906,0.9062,0.9064,0.9065,0.9204,0.9206,0,0,0,0,0,0,0.8981,0.8985,0.9045,0.9046,0.8998,0.9017,0.902,0.9036,0.9045,0.9045,0.9029,0.9025,0.9052,0.9055,0.9059,0.9123,0.9063,0.9065,0.9067,0.9201,0.9204,0.9206,0,0,0,0,0,0,0.8979,0.8987,0.9044,0.9015,0.9022,0.9021,0.9039,0.9037,0.9047,0.9048,0.9047,0.9039,0.905,0.9055,0.9095,0.9124,0.9067,0.9069,0.9199,0.9202,0.9205,0.9253,0,0,0,0,0,0,0.8977,0.8986,0.9007,0.9016,0.9024,0.908,0.904,0.9039,0.9052,0.9048,0.9057,0.9057,0.9049,0.9091,0.9097,0.9126,0.9071,0.9196,0.92,0.9204,0.9248,0.9257,0.9264,0,0,0,0,0,0.8974,0.9018,0.9008,0.9016,0.905,0.9082,0.9086,0.9077,0.9055,0.9075,0.9076,0.9057,0.912,0.9095,0.9102,0.9132,0.9195,0.9199,0.9204,0.9245,0.9255,0.9264,0,0,0,0,0,0,0.9011,0.9019,0.9008,0.9056,0.9069,0.9076,0.9101,0.9088,0.9106,0.9101,0.9088,0.9091,0.9133,0.9137,0.9109,0.9186,0.9153,0.916,0.9182,0.9192,0.92,0.9198,0.9073,0,0,0,0,0,0.9025,0.9051,0.9056,0.9098,0.9105,0.9103,0.9116,0.9109,0.912,0.9125,0.9128,0.914,0.9162,0.9177,0.9198,0.9249,0.9251,0.9273,0.9281,0.9288,0.9293,0.9322,0.9332,0.9222,0.9222,0.9221,0,0,0.9053,0.9061,0.9078,0.9106,0.9115,0.9142,0.9107,0.9137,0.9157,0.9129,0.9167,0.9171,0.9182,0.9229,0.9249,0.9233,0.9324,0.9293,0.9299,0.9301,0.9328,0.9338,0.9347,0.9225,0.9224,0.9224,0,0,0.9119,0.9128,0.9164,0.9174,0.9189,0.9187,0.9196,0.9206,0.9207,0.9246,0.9226,0.9249,0.9288,0.9298,0.9308,0.938,0.9363,0.9387,0.9428,0.9456,0.9465,0.9472,0.9499,0.9509,0.9392,0.9392,0.9393,0,0.9152,0.9193,0.9184,0.9216,0.923,0.9208,0.9245,0.9255,0.9274,0.9284,0.9266,0.9315,0.9321,0.937,0.9388,0.9397,0.9407,0.9386,0.9464,0.9472,0.9479,0.9504,0.9514,0.9395,0.9395,0.9395,0.9394,0,0.9234,0.9263,0.929,0.9313,0.9329,0.9363,0.9359,0.9376,0.9368,0.9368,0.9408,0.9415,0.9438,0.9449,0.9439,0.9497,0.9486,0.9467,0.9434,0.9493,0.9516,0.9526,0.9399,0.9398,0.9397,0.9397,0,0,0.9322,0.9341,0.9351,0.9361,0.9377,0.9398,0.9432,0.9455,0.9471,0.9486,0.9514,0.9548,0.9531,0.9542,0.9534,0.9559,0.9617,0.9536,0.9536,0.9551,0.9681,0.9697,0.9708,0.9606,0.9608,0.9609,0.9681,0,0.9389,0.9448,0.9442,0.9499,0.9526,0.9506,0.9536,0.9548,0.955,0.9572,0.9573,0.9598,0.9573,0.958,0.9603,0.9605,0.9643,0.9599,0.9632,0.9633,0.963,0.972,0.9736,0.9803,0.969,0.9691,0.9692,0,0.9474,0.9494,0.9554,0.9567,0.9578,0.9605,0.9627,0.9649,0.9663,0.9662,0.9676,0.9665,0.9698,0.9665,0.9712,0.9682,0.9695,0.9698,0.9701,0.9703,0.9666,0.9726,0.9824,0.9834,0.9707,0.9705,0.9704,0,0.9533,0.9575,0.9617,0.9626,0.9642,0.9662,0.9669,0.9682,0.9697,0.9716,0.9725,0.9747,0.976,0.9777,0.9771,0.9748,0.9819,0.9785,0.982,0.982,0.9836,0.9835,0.9938,0.9843,0.9843,0.9843,0.9843,0,0.9608,0.9646,0.9644,0.967,0.9712,0.9704,0.9746,0.975,0.9762,0.9788,0.9772,0.9796,0.9788,0.9812,0.9808,0.9847,0.9853,0.9853,0.9852,0.9855,0.9855,0.9863,0.9858,0.9846,0.9845,0.9845,0.9844,0,0.9681,0.9682,0.9726,0.9739,0.9743,0.9773,0.9784,0.9808,0.9809,0.9842,0.9849,0.985,0.9878,0.9875,0.9905,0.9902,0.9952,0.9944,0.9948,0.9946,0.9981,0.9978,1.0093,1.0108,1.0004,1.0005,1.0006,0,0.9729,0.9758,0.9775,0.9792,0.9802,0.9829,0.9845,0.9839,0.9857,0.9876,0.9898,0.9925,0.9946,0.9991,0.9994,1.0018,1.0011,1.005,1.0014,1.0017,1.0012,1.0011,1.0014,1.0056,1.0058,1.0059,1.0059,0,0.9815,0.9814,0.9839,0.9864,0.9885,0.9904,0.9921,0.9936,0.9932,0.9952,0.9982,0.9998,1.0031,1.0057,1.008,1.0087,1.0073,1.0071,1.008,1.0084,1.0085,1.0086,0.9967,1.0068,1.0067,1.0066,1.0066,1.0066,0.9877,0.9903,0.9919,0.9947,0.9961,0.9978,1.0002,1.0007,1.0032,1.0059,1.0054,1.0087,1.0101,1.0131,1.014,1.0165,1.0151,1.0164,1.0168,1.0171,1.0176,1.0081,1.0169,1.0169,1.0169,1.0169,1.0168,0,0.9962,0.9973,0.9999,1.0025,1.0048,1.0035,1.0054,1.0073,1.0103,1.0118,1.014,1.0175,1.0201,1.0207,1.0233,1.0252,1.0246,1.0259,1.0257,1.026,1.0187,1.0177,1.0263,1.0263,1.0263,1.0263,1.0263,1.0263,1.0009,1.0052,1.0054,1.0104,1.0113,1.0147,1.0159,1.0175,1.0188,1.0227,1.025,1.0255,1.0266,1.0293,1.0317,1.0318,1.0328,1.0344,1.0342,1.0274,1.0264,1.0255,1.0246,1.0346,1.0346,1.0413,1.0414,1.0414]},{"header":{"parameterUnit":"m.s-1","parameterCategory":1,"la1":30.2991,"la2":30.254,"lo1":-89.0895,"lo2":-89.0444,"dx":0.0017,"dy":0.0017,"nx":28,"ny":28,"refTime":"2022-12-09T15:00:00:Z","depth":0,"parameterNumber":3,"parameterNumberName":"V-component_of_WINDS"},"data":[0,0,0,0,0,0,0,0,0,0,0,0,0,0,0,0,0,0,0,0,0,0,0,0,0,0,0,0,0,0,0,0,0,0,0,0,0,0,0,0,0,0,0,0,0,0,0,0,0,0,0,0,0,0,0,0,0,0,-0.971,-0.9709,0,-0.9675,-0.9674,-0.9674,-0.9658,-0.9658,-0.9658,-0.9658,-0.9618,-0.9617,-0.9616,0,0,0,0,0,0,0,0,0,0,0,0,0,-0.9759,-0.9758,-0.971,-0.9709,-0.9709,-0.9675,-0.9674,-0.9674,-0.9658,-0.9658,-0.9658,-0.9658,-0.9618,-0.9617,-0.9616,0,0,0,0,0,0,0,0,0,0,0,0,0,-0.9732,-0.9758,-0.971,-0.9697,-0.9695,-0.9675,-0.9674,-0.9674,-0.9658,-0.9658,-0.9658,-0.9658,-0.9619,-0.9617,-0.9616,-0.9604,0,0,-0.961,-0.961,0,0,0,0,0,0,0,0,-0.9734,-0.973,-0.9699,-0.9698,-0.9696,-0.9671,-0.9677,-0.965,-0.9658,-0.9672,-0.9658,-0.9658,-0.9635,-0.9632,-0.9625,-0.9602,-0.9601,-0.961,-0.9609,-0.9609,-0.9608,0,0,0,0,0,0,0,-0.9736,-0.9732,-0.9696,-0.9699,-0.9697,-0.9692,-0.9688,-0.9672,-0.9653,-0.9671,-0.9669,-0.9666,-0.9634,-0.9627,-0.9624,-0.96,-0.961,-0.9609,-0.9608,-0.9607,-0.9566,-0.9566,0,0,0,0,0,0,-0.974,-0.9733,-0.9697,-0.9695,-0.9716,-0.9691,-0.9686,-0.9679,-0.9654,-0.965,-0.9666,-0.9665,-0.963,-0.9626,-0.9623,-0.9608,-0.9609,-0.9607,-0.9606,-0.9566,-0.9566,-0.9566,0,0,0,0,0,0,-0.9741,-0.9737,-0.9698,-0.9714,-0.9708,-0.969,-0.9681,-0.9678,-0.9671,-0.965,-0.9646,-0.9662,-0.963,-0.9625,-0.9609,-0.9607,-0.9606,-0.9605,-0.9566,-0.9566,-0.9566,-0.9579,0,0,0,0,0,0,-0.9743,-0.9738,-0.9734,-0.9714,-0.9708,-0.9686,-0.9681,-0.9677,-0.9668,-0.9667,-0.9645,-0.9642,-0.9629,-0.9612,-0.9608,-0.9604,-0.9604,-0.9566,-0.9566,-0.9566,-0.9578,-0.9579,-0.9579,0,0,0,0,0,-0.9745,-0.9738,-0.9734,-0.9729,-0.9703,-0.9686,-0.9683,-0.967,-0.9668,-0.9664,-0.9651,-0.9642,-0.9608,-0.961,-0.9605,-0.9602,-0.9566,-0.9566,-0.9566,-0.9578,-0.9579,-0.9579,0,0,0,0,0,0,-0.9756,-0.9735,-0.973,-0.9717,-0.9704,-0.9684,-0.9678,-0.9671,-0.9657,-0.9656,-0.9639,-0.9634,-0.962,-0.9609,-0.9613,-0.9589,-0.9586,-0.9585,-0.9597,-0.9598,-0.9598,-0.9601,-0.9602,0,0,0,0,0,-0.9758,-0.9747,-0.9729,-0.9719,-0.9713,-0.9696,-0.9689,-0.968,-0.9665,-0.9659,-0.9644,-0.9629,-0.9615,-0.9606,-0.9591,-0.9577,-0.9572,-0.9572,-0.9572,-0.9573,-0.9572,-0.9563,-0.9563,-0.9565,-0.9565,-0.9565,0,0,-0.976,-0.9747,-0.9741,-0.9721,-0.971,-0.9698,-0.9692,-0.968,-0.9671,-0.9657,-0.9641,-0.963,-0.9612,-0.9597,-0.959,-0.9587,-0.957,-0.9572,-0.9573,-0.9572,-0.9563,-0.9563,-0.9563,-0.9565,-0.9565,-0.9565,0,0,-0.9758,-0.9747,-0.9738,-0.9728,-0.9711,-0.9701,-0.9698,-0.9679,-0.9672,-0.9657,-0.9646,-0.9634,-0.961,-0.9598,-0.9588,-0.9583,-0.9574,-0.9578,-0.9581,-0.9573,-0.9573,-0.9573,-0.957,-0.957,-0.9577,-0.9577,-0.9577,0,-0.9762,-0.9746,-0.9734,-0.9723,-0.9714,-0.9703,-0.9693,-0.9682,-0.9662,-0.9655,-0.9654,-0.9623,-0.961,-0.9592,-0.9591,-0.9584,-0.958,-0.958,-0.9574,-0.9574,-0.9573,-0.9571,-0.957,-0.9578,-0.9578,-0.9578,-0.9578,0,-0.9752,-0.9741,-0.9735,-0.9717,-0.9708,-0.9697,-0.9683,-0.9675,-0.9667,-0.9656,-0.9641,-0.9625,-0.9607,-0.9602,-0.9594,-0.9583,-0.9582,-0.9577,-0.9574,-0.9574,-0.9572,-0.9571,-0.9579,-0.9579,-0.9578,-0.9578,0,0,-0.9756,-0.9733,-0.9731,-0.9723,-0.9704,-0.9695,-0.9683,-0.9668,-0.9661,-0.9647,-0.9637,-0.9617,-0.9613,-0.9602,-0.9592,-0.9585,-0.9582,-0.9581,-0.958,-0.9582,-0.9569,-0.9573,-0.9572,-0.9576,-0.9576,-0.9576,-0.957,0,-0.9752,-0.9733,-0.9722,-0.9707,-0.9696,-0.9685,-0.9676,-0.9663,-0.9652,-0.9641,-0.9629,-0.9615,-0.9611,-0.9604,-0.9597,-0.9584,-0.9579,-0.9584,-0.9566,-0.9565,-0.9571,-0.9571,-0.9574,-0.957,-0.9569,-0.9569,-0.9569,0,-0.9744,-0.9732,-0.9717,-0.97,-0.9695,-0.9687,-0.9672,-0.9661,-0.9646,-0.9639,-0.9628,-0.9618,-0.9605,-0.9603,-0.9584,-0.9588,-0.958,-0.9572,-0.9572,-0.9569,-0.9567,-0.9568,-0.9568,-0.9567,-0.9567,-0.9568,-0.9568,0,-0.9749,-0.9729,-0.9717,-0.971,-0.969,-0.9685,-0.9676,-0.9661,-0.9652,-0.9639,-0.9633,-0.9617,-0.9609,-0.9596,-0.9583,-0.9582,-0.9565,-0.9562,-0.9558,-0.9559,-0.9555,-0.9555,-0.9554,-0.955,-0.955,-0.955,-0.955,0,-0.9745,-0.9736,-0.9719,-0.9712,-0.9701,-0.9688,-0.9678,-0.9668,-0.9655,-0.9645,-0.9633,-0.9624,-0.9607,-0.9595,-0.9584,-0.957,-0.9566,-0.9559,-0.9556,-0.956,-0.9561,-0.9554,-0.9554,-0.955,-0.955,-0.955,-0.955,0,-0.9748,-0.9737,-0.9723,-0.9706,-0.9701,-0.9694,-0.9679,-0.9671,-0.9661,-0.9648,-0.9644,-0.9628,-0.9613,-0.9598,-0.9578,-0.9571,-0.9557,-0.9553,-0.9563,-0.9561,-0.9559,-0.9559,-0.9552,-0.9551,-0.9549,-0.9549,-0.9549,0,-0.9747,-0.974,-0.9722,-0.9716,-0.9707,-0.9696,-0.9688,-0.9675,-0.9667,-0.9649,-0.9643,-0.9628,-0.9616,-0.9593,-0.9578,-0.9562,-0.9558,-0.9557,-0.9555,-0.956,-0.9558,-0.9559,-0.9558,-0.9557,-0.9557,-0.9557,-0.9557,0,-0.9745,-0.974,-0.9729,-0.9716,-0.9707,-0.9696,-0.9684,-0.9679,-0.9663,-0.9654,-0.964,-0.9631,-0.9611,-0.9596,-0.9579,-0.9568,-0.956,-0.9558,-0.9556,-0.956,-0.9566,-0.9563,-0.9564,-0.9558,-0.9558,-0.9558,-0.9558,-0.9558,-0.9746,-0.9739,-0.9726,-0.9714,-0.9705,-0.9694,-0.9686,-0.9676,-0.9664,-0.9648,-0.9641,-0.9627,-0.9611,-0.9588,-0.9578,-0.9566,-0.9563,-0.9561,-0.956,-0.956,-0.9561,-0.9568,-0.9563,-0.9562,-0.9562,-0.9562,-0.9562,0,-0.9743,-0.9735,-0.9724,-0.9709,-0.97,-0.9695,-0.9682,-0.9674,-0.9662,-0.9649,-0.9638,-0.9621,-0.9607,-0.9591,-0.9576,-0.9569,-0.9565,-0.9566,-0.9566,-0.9563,-0.9564,-0.9567,-0.9569,-0.9569,-0.9569,-0.9569,-0.9569,-0.9569,-0.9741,-0.973,-0.9723,-0.9707,-0.9698,-0.9685,-0.9679,-0.9669,-0.9659,-0.9642,-0.963,-0.9621,-0.9607,-0.959,-0.9577,-0.9572,-0.9567,-0.9569,-0.9563,-0.9564,-0.9563,-0.9563,-0.9566,-0.9568,-0.9568,-0.9564,-0.9564,-0.9564]}]]